owner,sensor,date,latitude,longitude,vertical_datum,sea_water_temperature,qcFlag 
COMPS,ioos:station:USF.COMPS:C10:1,2017-11-09T16:05:00Z,27.1690,-82.9260,-1.0,24.29,2 
COMPS,ioos:station:USF.COMPS:C10:1,2017-11-09T16:35:00Z,27.1690,-82.9260,-1.0,24.35,2 
COMPS,ioos:station:USF.COMPS:C10:1,2017-11-09T17:05:00Z,27.1690,-82.9260,-1.0,24.45,2 
COMPS,ioos:station:USF.COMPS:C10:1,2017-11-09T17:35:00Z,27.1690,-82.9260,-1.0,24.6,2 
COMPS,ioos:station:USF.COMPS:C10:1,2017-11-09T18:05:00Z,27.1690,-82.9260,-1.0,24.61,2 
COMPS,ioos:station:USF.COMPS:C10:1,2017-11-09T18:35:00Z,27.1690,-82.9260,-1.0,24.69,2 
COMPS,ioos:station:USF.COMPS:C10:1,2017-11-09T19:05:00Z,27.1690,-82.9260,-1.0,24.8,2 
COMPS,ioos:station:USF.COMPS:C10:1,2017-11-09T19:35:00Z,27.1690,-82.9260,-1.0,24.73,2 
COMPS,ioos:station:USF.COMPS:C10:1,2017-11-09T20:05:00Z,27.1690,-82.9260,-1.0,24.88,2 
COMPS,ioos:station:USF.COMPS:C10:1,2017-11-09T20:35:00Z,27.1690,-82.9260,-1.0,24.98,2 
COMPS,ioos:station:USF.COMPS:C10:1,2017-11-09T21:05:00Z,27.1690,-82.9260,-1.0,24.72,2 
COMPS,ioos:station:USF.COMPS:C10:1,2017-11-09T21:35:00Z,27.1690,-82.9260,-1.0,24.92,2 
COMPS,ioos:station:USF.COMPS:C10:1,2017-11-09T22:05:00Z,27.1690,-82.9260,-1.0,24.97,2 
COMPS,ioos:station:USF.COMPS:C10:1,2017-11-09T22:35:00Z,27.1690,-82.9260,-1.0,24.98,2 
COMPS,ioos:station:USF.COMPS:C10:1,2017-11-09T23:05:00Z,27.1690,-82.9260,-1.0,24.81,2 
COMPS,ioos:station:USF.COMPS:C10:1,2017-11-09T23:35:00Z,27.1690,-82.9260,-1.0,24.71,2 
COMPS,ioos:station:USF.COMPS:C10:1,2017-11-10T00:05:00Z,27.1690,-82.9260,-1.0,24.67,2 
COMPS,ioos:station:USF.COMPS:C10:1,2017-11-10T00:35:00Z,27.1690,-82.9260,-1.0,24.5,2 
COMPS,ioos:station:USF.COMPS:C10:1,2017-11-10T01:05:00Z,27.1690,-82.9260,-1.0,24.41,2 
COMPS,ioos:station:USF.COMPS:C10:1,2017-11-10T01:35:00Z,27.1690,-82.9260,-1.0,24.36,2 
COMPS,ioos:station:USF.COMPS:C10:1,2017-11-10T02:05:00Z,27.1690,-82.9260,-1.0,24.37,2 
COMPS,ioos:station:USF.COMPS:C10:1,2017-11-10T02:35:00Z,27.1690,-82.9260,-1.0,24.36,2 
COMPS,ioos:station:USF.COMPS:C10:1,2017-11-10T03:05:00Z,27.1690,-82.9260,-1.0,24.37,2 
COMPS,ioos:station:USF.COMPS:C10:1,2017-11-10T03:35:00Z,27.1690,-82.9260,-1.0,24.35,2 
COMPS,ioos:station:USF.COMPS:C10:1,2017-11-10T04:05:00Z,27.1690,-82.9260,-1.0,24.33,2 
COMPS,ioos:station:USF.COMPS:C10:1,2017-11-10T04:35:00Z,27.1690,-82.9260,-1.0,24.33,2 
COMPS,ioos:station:USF.COMPS:C10:1,2017-11-10T05:05:00Z,27.1690,-82.9260,-1.0,24.33,2 
COMPS,ioos:station:USF.COMPS:C10:1,2017-11-10T05:35:00Z,27.1690,-82.9260,-1.0,24.3,2 
COMPS,ioos:station:USF.COMPS:C10:1,2017-11-10T06:05:00Z,27.1690,-82.9260,-1.0,24.3,2 
COMPS,ioos:station:USF.COMPS:C10:1,2017-11-10T06:35:00Z,27.1690,-82.9260,-1.0,24.26,2 
COMPS,ioos:station:USF.COMPS:C10:1,2017-11-10T07:05:00Z,27.1690,-82.9260,-1.0,24.25,2 
COMPS,ioos:station:USF.COMPS:C10:1,2017-11-10T07:35:00Z,27.1690,-82.9260,-1.0,24.25,2 
COMPS,ioos:station:USF.COMPS:C10:1,2017-11-10T08:05:00Z,27.1690,-82.9260,-1.0,24.23,2 
COMPS,ioos:station:USF.COMPS:C10:1,2017-11-10T08:35:00Z,27.1690,-82.9260,-1.0,24.21,2 
COMPS,ioos:station:USF.COMPS:C10:1,2017-11-10T09:05:00Z,27.1690,-82.9260,-1.0,24.21,2 
COMPS,ioos:station:USF.COMPS:C10:1,2017-11-10T09:35:00Z,27.1690,-82.9260,-1.0,24.2,2 
COMPS,ioos:station:USF.COMPS:C10:1,2017-11-10T10:05:00Z,27.1690,-82.9260,-1.0,24.17,2 
COMPS,ioos:station:USF.COMPS:C10:1,2017-11-10T10:35:00Z,27.1690,-82.9260,-1.0,24.15,2 
COMPS,ioos:station:USF.COMPS:C10:1,2017-11-10T11:05:00Z,27.1690,-82.9260,-1.0,24.13,2 
COMPS,ioos:station:USF.COMPS:C10:1,2017-11-10T11:35:00Z,27.1690,-82.9260,-1.0,24.14,2 
COMPS,ioos:station:USF.COMPS:C10:1,2017-11-10T12:05:00Z,27.1690,-82.9260,-1.0,24.13,2 
COMPS,ioos:station:USF.COMPS:C10:1,2017-11-10T12:35:00Z,27.1690,-82.9260,-1.0,24.17,2 
COMPS,ioos:station:USF.COMPS:C10:1,2017-11-10T13:05:00Z,27.1690,-82.9260,-1.0,24.15,2 
COMPS,ioos:station:USF.COMPS:C10:1,2017-11-10T13:35:00Z,27.1690,-82.9260,-1.0,24.15,2 
COMPS,ioos:station:USF.COMPS:C10:1,2017-11-10T14:05:00Z,27.1690,-82.9260,-1.0,24.16,2 
COMPS,ioos:station:USF.COMPS:C10:1,2017-11-10T14:35:00Z,27.1690,-82.9260,-1.0,24.13,2 
COMPS,ioos:station:USF.COMPS:C10:1,2017-11-10T15:05:00Z,27.1690,-82.9260,-1.0,24.19,2 
COMPS,ioos:station:USF.COMPS:C10:1,2017-11-10T15:35:00Z,27.1690,-82.9260,-1.0,24.17,2 
COMPS,ioos:station:USF.COMPS:C10:1,2017-11-10T16:05:00Z,27.1690,-82.9260,-1.0,24.18,2 
COMPS,ioos:station:USF.COMPS:C10:1,2017-11-10T16:35:00Z,27.1690,-82.9260,-1.0,24.16,2 
COMPS,ioos:station:USF.COMPS:C10:1,2017-11-10T17:05:00Z,27.1690,-82.9260,-1.0,24.12,2 
COMPS,ioos:station:USF.COMPS:C10:1,2017-11-10T17:35:00Z,27.1690,-82.9260,-1.0,24.11,2 
COMPS,ioos:station:USF.COMPS:C10:1,2017-11-10T18:05:00Z,27.1690,-82.9260,-1.0,24.12,2 
COMPS,ioos:station:USF.COMPS:C10:1,2017-11-10T18:35:00Z,27.1690,-82.9260,-1.0,24.13,2 
COMPS,ioos:station:USF.COMPS:C10:1,2017-11-10T19:05:00Z,27.1690,-82.9260,-1.0,24.12,2 
COMPS,ioos:station:USF.COMPS:C10:1,2017-11-10T19:35:00Z,27.1690,-82.9260,-1.0,24.13,2 
COMPS,ioos:station:USF.COMPS:C10:1,2017-11-10T20:05:00Z,27.1690,-82.9260,-1.0,24.15,2 
COMPS,ioos:station:USF.COMPS:C10:1,2017-11-10T20:35:00Z,27.1690,-82.9260,-1.0,24.14,2 
COMPS,ioos:station:USF.COMPS:C10:1,2017-11-10T21:05:00Z,27.1690,-82.9260,-1.0,24.13,2 
COMPS,ioos:station:USF.COMPS:C10:1,2017-11-10T21:35:00Z,27.1690,-82.9260,-1.0,24.12,2 
COMPS,ioos:station:USF.COMPS:C10:1,2017-11-10T22:05:00Z,27.1690,-82.9260,-1.0,24.14,2 
COMPS,ioos:station:USF.COMPS:C10:1,2017-11-10T22:35:00Z,27.1690,-82.9260,-1.0,24.12,2 
COMPS,ioos:station:USF.COMPS:C10:1,2017-11-10T23:05:00Z,27.1690,-82.9260,-1.0,24.12,2 
COMPS,ioos:station:USF.COMPS:C10:1,2017-11-10T23:35:00Z,27.1690,-82.9260,-1.0,24.12,2 
COMPS,ioos:station:USF.COMPS:C10:1,2017-11-11T00:05:00Z,27.1690,-82.9260,-1.0,24.11,2 
COMPS,ioos:station:USF.COMPS:C10:1,2017-11-11T00:35:00Z,27.1690,-82.9260,-1.0,24.13,2 
COMPS,ioos:station:USF.COMPS:C10:1,2017-11-11T01:05:00Z,27.1690,-82.9260,-1.0,24.12,2 
COMPS,ioos:station:USF.COMPS:C10:1,2017-11-11T01:35:00Z,27.1690,-82.9260,-1.0,24.12,2 
COMPS,ioos:station:USF.COMPS:C10:1,2017-11-11T02:05:00Z,27.1690,-82.9260,-1.0,24.11,2 
COMPS,ioos:station:USF.COMPS:C10:1,2017-11-11T02:35:00Z,27.1690,-82.9260,-1.0,24.12,2 
COMPS,ioos:station:USF.COMPS:C10:1,2017-11-11T03:05:00Z,27.1690,-82.9260,-1.0,24.1,2 
COMPS,ioos:station:USF.COMPS:C10:1,2017-11-11T03:35:00Z,27.1690,-82.9260,-1.0,24.11,2 
COMPS,ioos:station:USF.COMPS:C10:1,2017-11-11T04:05:00Z,27.1690,-82.9260,-1.0,24.12,2 
COMPS,ioos:station:USF.COMPS:C10:1,2017-11-11T04:35:00Z,27.1690,-82.9260,-1.0,24.11,2 
COMPS,ioos:station:USF.COMPS:C10:1,2017-11-11T05:05:00Z,27.1690,-82.9260,-1.0,24.13,2 
COMPS,ioos:station:USF.COMPS:C10:1,2017-11-11T05:35:00Z,27.1690,-82.9260,-1.0,24.13,2 
COMPS,ioos:station:USF.COMPS:C10:1,2017-11-11T06:05:00Z,27.1690,-82.9260,-1.0,24.11,2 
COMPS,ioos:station:USF.COMPS:C10:1,2017-11-11T06:35:00Z,27.1690,-82.9260,-1.0,24.13,2 
COMPS,ioos:station:USF.COMPS:C10:1,2017-11-11T07:05:00Z,27.1690,-82.9260,-1.0,24.1,2 
COMPS,ioos:station:USF.COMPS:C10:1,2017-11-11T07:35:00Z,27.1690,-82.9260,-1.0,24.12,2 
COMPS,ioos:station:USF.COMPS:C10:1,2017-11-11T08:05:00Z,27.1690,-82.9260,-1.0,24.11,2 
COMPS,ioos:station:USF.COMPS:C10:1,2017-11-11T08:35:00Z,27.1690,-82.9260,-1.0,24.11,2 
COMPS,ioos:station:USF.COMPS:C10:1,2017-11-11T09:05:00Z,27.1690,-82.9260,-1.0,24.12,2 
COMPS,ioos:station:USF.COMPS:C10:1,2017-11-11T09:35:00Z,27.1690,-82.9260,-1.0,24.17,2 
COMPS,ioos:station:USF.COMPS:C10:1,2017-11-11T10:05:00Z,27.1690,-82.9260,-1.0,24.24,2 
COMPS,ioos:station:USF.COMPS:C10:1,2017-11-11T10:35:00Z,27.1690,-82.9260,-1.0,24.24,2 
COMPS,ioos:station:USF.COMPS:C10:1,2017-11-11T11:05:00Z,27.1690,-82.9260,-1.0,24.24,2 
COMPS,ioos:station:USF.COMPS:C10:1,2017-11-11T11:35:00Z,27.1690,-82.9260,-1.0,24.26,2 
COMPS,ioos:station:USF.COMPS:C10:1,2017-11-11T12:05:00Z,27.1690,-82.9260,-1.0,24.24,2 
COMPS,ioos:station:USF.COMPS:C10:1,2017-11-11T12:35:00Z,27.1690,-82.9260,-1.0,24.27,2 
COMPS,ioos:station:USF.COMPS:C10:1,2017-11-11T13:05:00Z,27.1690,-82.9260,-1.0,24.28,2 
COMPS,ioos:station:USF.COMPS:C10:1,2017-11-11T13:35:00Z,27.1690,-82.9260,-1.0,24.32,2 
COMPS,ioos:station:USF.COMPS:C10:1,2017-11-11T14:05:00Z,27.1690,-82.9260,-1.0,24.36,2 
COMPS,ioos:station:USF.COMPS:C10:1,2017-11-11T14:35:00Z,27.1690,-82.9260,-1.0,24.55,2 
COMPS,ioos:station:USF.COMPS:C10:1,2017-11-11T15:05:00Z,27.1690,-82.9260,-1.0,24.54,2 
COMPS,ioos:station:USF.COMPS:C10:1,2017-11-11T15:35:00Z,27.1690,-82.9260,-1.0,24.46,2 
COMPS,ioos:station:USF.COMPS:C10:1,2017-11-11T16:05:00Z,27.1690,-82.9260,-1.0,24.43,2 
COMPS,ioos:station:USF.COMPS:C10:1,2017-11-11T16:35:00Z,27.1690,-82.9260,-1.0,24.41,2 
COMPS,ioos:station:USF.COMPS:C10:1,2017-11-11T17:05:00Z,27.1690,-82.9260,-1.0,24.43,2 
COMPS,ioos:station:USF.COMPS:C10:1,2017-11-11T17:35:00Z,27.1690,-82.9260,-1.0,24.45,2 
COMPS,ioos:station:USF.COMPS:C10:1,2017-11-11T18:05:00Z,27.1690,-82.9260,-1.0,24.49,2 
COMPS,ioos:station:USF.COMPS:C10:1,2017-11-11T18:35:00Z,27.1690,-82.9260,-1.0,24.53,2 
COMPS,ioos:station:USF.COMPS:C10:1,2017-11-11T19:05:00Z,27.1690,-82.9260,-1.0,24.6,2 
COMPS,ioos:station:USF.COMPS:C10:1,2017-11-11T19:35:00Z,27.1690,-82.9260,-1.0,24.62,2 
COMPS,ioos:station:USF.COMPS:C10:1,2017-11-11T20:05:00Z,27.1690,-82.9260,-1.0,24.64,2 
COMPS,ioos:station:USF.COMPS:C10:1,2017-11-11T20:35:00Z,27.1690,-82.9260,-1.0,24.63,2 
COMPS,ioos:station:USF.COMPS:C10:1,2017-11-11T21:05:00Z,27.1690,-82.9260,-1.0,24.65,2 
COMPS,ioos:station:USF.COMPS:C10:1,2017-11-11T21:35:00Z,27.1690,-82.9260,-1.0,24.66,2 
COMPS,ioos:station:USF.COMPS:C10:1,2017-11-11T22:05:00Z,27.1690,-82.9260,-1.0,24.67,2 
COMPS,ioos:station:USF.COMPS:C10:1,2017-11-11T22:35:00Z,27.1690,-82.9260,-1.0,24.67,2 
COMPS,ioos:station:USF.COMPS:C10:1,2017-11-11T23:05:00Z,27.1690,-82.9260,-1.0,24.67,2 
COMPS,ioos:station:USF.COMPS:C10:1,2017-11-11T23:35:00Z,27.1690,-82.9260,-1.0,24.68,2 
COMPS,ioos:station:USF.COMPS:C10:1,2017-11-12T00:05:00Z,27.1690,-82.9260,-1.0,24.72,2 
COMPS,ioos:station:USF.COMPS:C10:1,2017-11-12T00:35:00Z,27.1690,-82.9260,-1.0,24.73,2 
COMPS,ioos:station:USF.COMPS:C10:1,2017-11-12T01:05:00Z,27.1690,-82.9260,-1.0,24.72,2 
COMPS,ioos:station:USF.COMPS:C10:1,2017-11-12T01:35:00Z,27.1690,-82.9260,-1.0,24.72,2 
COMPS,ioos:station:USF.COMPS:C10:1,2017-11-12T02:05:00Z,27.1690,-82.9260,-1.0,24.7,2 
COMPS,ioos:station:USF.COMPS:C10:1,2017-11-12T02:35:00Z,27.1690,-82.9260,-1.0,24.7,2 
COMPS,ioos:station:USF.COMPS:C10:1,2017-11-12T03:05:00Z,27.1690,-82.9260,-1.0,24.66,2 
COMPS,ioos:station:USF.COMPS:C10:1,2017-11-12T03:35:00Z,27.1690,-82.9260,-1.0,24.64,2 
COMPS,ioos:station:USF.COMPS:C10:1,2017-11-12T04:05:00Z,27.1690,-82.9260,-1.0,24.66,2 
COMPS,ioos:station:USF.COMPS:C10:1,2017-11-12T04:35:00Z,27.1690,-82.9260,-1.0,24.67,2 
COMPS,ioos:station:USF.COMPS:C10:1,2017-11-12T05:05:00Z,27.1690,-82.9260,-1.0,24.66,2 
COMPS,ioos:station:USF.COMPS:C10:1,2017-11-12T05:35:00Z,27.1690,-82.9260,-1.0,24.65,2 
COMPS,ioos:station:USF.COMPS:C10:1,2017-11-12T06:05:00Z,27.1690,-82.9260,-1.0,24.63,2 
COMPS,ioos:station:USF.COMPS:C10:1,2017-11-12T06:35:00Z,27.1690,-82.9260,-1.0,24.6,2 
COMPS,ioos:station:USF.COMPS:C10:1,2017-11-12T07:05:00Z,27.1690,-82.9260,-1.0,24.61,2 
COMPS,ioos:station:USF.COMPS:C10:1,2017-11-12T07:35:00Z,27.1690,-82.9260,-1.0,24.62,2 
COMPS,ioos:station:USF.COMPS:C10:1,2017-11-12T08:05:00Z,27.1690,-82.9260,-1.0,24.62,2 
COMPS,ioos:station:USF.COMPS:C10:1,2017-11-12T08:35:00Z,27.1690,-82.9260,-1.0,24.52,2 
COMPS,ioos:station:USF.COMPS:C10:1,2017-11-12T09:05:00Z,27.1690,-82.9260,-1.0,24.53,2 
COMPS,ioos:station:USF.COMPS:C10:1,2017-11-12T09:35:00Z,27.1690,-82.9260,-1.0,24.56,2 
COMPS,ioos:station:USF.COMPS:C10:1,2017-11-12T10:05:00Z,27.1690,-82.9260,-1.0,24.55,2 
COMPS,ioos:station:USF.COMPS:C10:1,2017-11-12T10:35:00Z,27.1690,-82.9260,-1.0,24.54,2 
COMPS,ioos:station:USF.COMPS:C10:1,2017-11-12T11:05:00Z,27.1690,-82.9260,-1.0,24.55,2 
COMPS,ioos:station:USF.COMPS:C10:1,2017-11-12T11:35:00Z,27.1690,-82.9260,-1.0,24.55,2 
COMPS,ioos:station:USF.COMPS:C10:1,2017-11-12T12:05:00Z,27.1690,-82.9260,-1.0,24.54,2 
COMPS,ioos:station:USF.COMPS:C10:1,2017-11-12T12:35:00Z,27.1690,-82.9260,-1.0,24.55,2 
COMPS,ioos:station:USF.COMPS:C10:1,2017-11-12T13:05:00Z,27.1690,-82.9260,-1.0,24.55,2 
COMPS,ioos:station:USF.COMPS:C10:1,2017-11-12T13:35:00Z,27.1690,-82.9260,-1.0,24.57,2 
COMPS,ioos:station:USF.COMPS:C10:1,2017-11-12T14:05:00Z,27.1690,-82.9260,-1.0,24.56,2 
COMPS,ioos:station:USF.COMPS:C10:1,2017-11-12T14:35:00Z,27.1690,-82.9260,-1.0,24.57,2 
COMPS,ioos:station:USF.COMPS:C10:1,2017-11-12T15:05:00Z,27.1690,-82.9260,-1.0,24.56,2 
COMPS,ioos:station:USF.COMPS:C10:1,2017-11-12T15:35:00Z,27.1690,-82.9260,-1.0,24.57,2 
COMPS,ioos:station:USF.COMPS:C10:1,2017-11-12T16:05:00Z,27.1690,-82.9260,-1.0,24.57,2 
COMPS,ioos:station:USF.COMPS:C10:1,2017-11-12T16:35:00Z,27.1690,-82.9260,-1.0,24.59,2 
COMPS,ioos:station:USF.COMPS:C10:1,2017-11-12T17:05:00Z,27.1690,-82.9260,-1.0,24.6,2 
COMPS,ioos:station:USF.COMPS:C10:1,2017-11-12T17:35:00Z,27.1690,-82.9260,-1.0,24.62,2 
COMPS,ioos:station:USF.COMPS:C10:1,2017-11-12T18:05:00Z,27.1690,-82.9260,-1.0,24.65,2 
COMPS,ioos:station:USF.COMPS:C10:1,2017-11-12T18:35:00Z,27.1690,-82.9260,-1.0,24.66,2 
COMPS,ioos:station:USF.COMPS:C10:1,2017-11-12T19:05:00Z,27.1690,-82.9260,-1.0,24.68,2 
COMPS,ioos:station:USF.COMPS:C10:1,2017-11-12T19:35:00Z,27.1690,-82.9260,-1.0,24.67,2 
COMPS,ioos:station:USF.COMPS:C10:1,2017-11-12T20:05:00Z,27.1690,-82.9260,-1.0,24.63,2 
COMPS,ioos:station:USF.COMPS:C10:1,2017-11-12T20:35:00Z,27.1690,-82.9260,-1.0,24.62,2 
COMPS,ioos:station:USF.COMPS:C10:1,2017-11-12T21:05:00Z,27.1690,-82.9260,-1.0,24.61,2 
COMPS,ioos:station:USF.COMPS:C10:1,2017-11-12T21:35:00Z,27.1690,-82.9260,-1.0,24.57,2 
COMPS,ioos:station:USF.COMPS:C10:1,2017-11-12T22:05:00Z,27.1690,-82.9260,-1.0,24.52,2 
COMPS,ioos:station:USF.COMPS:C10:1,2017-11-12T22:35:00Z,27.1690,-82.9260,-1.0,24.5,2 
COMPS,ioos:station:USF.COMPS:C10:1,2017-11-12T23:05:00Z,27.1690,-82.9260,-1.0,24.48,2 
COMPS,ioos:station:USF.COMPS:C10:1,2017-11-12T23:35:00Z,27.1690,-82.9260,-1.0,24.47,2 
COMPS,ioos:station:USF.COMPS:C10:1,2017-11-13T00:05:00Z,27.1690,-82.9260,-1.0,24.47,2 
COMPS,ioos:station:USF.COMPS:C10:1,2017-11-13T00:35:00Z,27.1690,-82.9260,-1.0,24.45,2 
COMPS,ioos:station:USF.COMPS:C10:1,2017-11-13T01:05:00Z,27.1690,-82.9260,-1.0,24.43,2 
COMPS,ioos:station:USF.COMPS:C10:1,2017-11-13T01:35:00Z,27.1690,-82.9260,-1.0,24.43,2 
COMPS,ioos:station:USF.COMPS:C10:1,2017-11-13T02:05:00Z,27.1690,-82.9260,-1.0,24.42,2 
COMPS,ioos:station:USF.COMPS:C10:1,2017-11-13T02:35:00Z,27.1690,-82.9260,-1.0,24.39,2 
COMPS,ioos:station:USF.COMPS:C10:1,2017-11-13T03:05:00Z,27.1690,-82.9260,-1.0,24.4,2 
COMPS,ioos:station:USF.COMPS:C10:1,2017-11-13T03:35:00Z,27.1690,-82.9260,-1.0,24.4,2 
COMPS,ioos:station:USF.COMPS:C10:1,2017-11-13T04:05:00Z,27.1690,-82.9260,-1.0,24.39,2 
COMPS,ioos:station:USF.COMPS:C10:1,2017-11-13T04:35:00Z,27.1690,-82.9260,-1.0,24.39,2 
COMPS,ioos:station:USF.COMPS:C10:1,2017-11-13T05:05:00Z,27.1690,-82.9260,-1.0,24.4,2 
COMPS,ioos:station:USF.COMPS:C10:1,2017-11-13T05:35:00Z,27.1690,-82.9260,-1.0,24.4,2 
COMPS,ioos:station:USF.COMPS:C10:1,2017-11-13T06:05:00Z,27.1690,-82.9260,-1.0,24.39,2 
COMPS,ioos:station:USF.COMPS:C10:1,2017-11-13T06:35:00Z,27.1690,-82.9260,-1.0,24.38,2 
COMPS,ioos:station:USF.COMPS:C10:1,2017-11-13T07:05:00Z,27.1690,-82.9260,-1.0,24.38,2 
COMPS,ioos:station:USF.COMPS:C10:1,2017-11-13T07:35:00Z,27.1690,-82.9260,-1.0,24.38,2 
COMPS,ioos:station:USF.COMPS:C10:1,2017-11-13T08:05:00Z,27.1690,-82.9260,-1.0,24.37,2 
COMPS,ioos:station:USF.COMPS:C10:1,2017-11-13T08:35:00Z,27.1690,-82.9260,-1.0,24.37,2 
COMPS,ioos:station:USF.COMPS:C10:1,2017-11-13T09:05:00Z,27.1690,-82.9260,-1.0,24.35,2 
COMPS,ioos:station:USF.COMPS:C10:1,2017-11-13T09:35:00Z,27.1690,-82.9260,-1.0,24.35,2 
COMPS,ioos:station:USF.COMPS:C10:1,2017-11-13T10:05:00Z,27.1690,-82.9260,-1.0,24.36,2 
COMPS,ioos:station:USF.COMPS:C10:1,2017-11-13T10:35:00Z,27.1690,-82.9260,-1.0,24.35,2 
COMPS,ioos:station:USF.COMPS:C10:1,2017-11-13T11:05:00Z,27.1690,-82.9260,-1.0,24.34,2 
COMPS,ioos:station:USF.COMPS:C10:1,2017-11-13T11:35:00Z,27.1690,-82.9260,-1.0,24.38,2 
COMPS,ioos:station:USF.COMPS:C10:1,2017-11-13T12:05:00Z,27.1690,-82.9260,-1.0,24.4,2 
COMPS,ioos:station:USF.COMPS:C10:1,2017-11-13T12:35:00Z,27.1690,-82.9260,-1.0,24.4,2 
COMPS,ioos:station:USF.COMPS:C10:1,2017-11-13T13:05:00Z,27.1690,-82.9260,-1.0,24.4,2 
COMPS,ioos:station:USF.COMPS:C10:1,2017-11-13T13:35:00Z,27.1690,-82.9260,-1.0,24.41,2 
COMPS,ioos:station:USF.COMPS:C10:1,2017-11-13T14:05:00Z,27.1690,-82.9260,-1.0,24.41,2 
COMPS,ioos:station:USF.COMPS:C10:1,2017-11-13T14:35:00Z,27.1690,-82.9260,-1.0,24.41,2 
COMPS,ioos:station:USF.COMPS:C10:1,2017-11-13T15:05:00Z,27.1690,-82.9260,-1.0,24.4,2 
COMPS,ioos:station:USF.COMPS:C10:1,2017-11-13T15:35:00Z,27.1690,-82.9260,-1.0,24.42,2 
COMPS,ioos:station:USF.COMPS:C10:1,2017-11-13T16:05:00Z,27.1690,-82.9260,-1.0,24.47,2 
COMPS,ioos:station:USF.COMPS:C10:1,2017-11-13T16:35:00Z,27.1690,-82.9260,-1.0,24.49,2 
COMPS,ioos:station:USF.COMPS:C10:1,2017-11-13T17:05:00Z,27.1690,-82.9260,-1.0,24.57,2 
COMPS,ioos:station:USF.COMPS:C10:1,2017-11-13T17:35:00Z,27.1690,-82.9260,-1.0,24.61,2 
COMPS,ioos:station:USF.COMPS:C10:1,2017-11-13T18:05:00Z,27.1690,-82.9260,-1.0,24.65,2 
COMPS,ioos:station:USF.COMPS:C10:1,2017-11-13T18:35:00Z,27.1690,-82.9260,-1.0,24.65,2 
COMPS,ioos:station:USF.COMPS:C10:1,2017-11-13T19:05:00Z,27.1690,-82.9260,-1.0,24.64,2 
COMPS,ioos:station:USF.COMPS:C10:1,2017-11-13T19:35:00Z,27.1690,-82.9260,-1.0,24.63,2 
COMPS,ioos:station:USF.COMPS:C10:1,2017-11-13T20:05:00Z,27.1690,-82.9260,-1.0,24.65,2 
COMPS,ioos:station:USF.COMPS:C10:1,2017-11-13T20:35:00Z,27.1690,-82.9260,-1.0,24.66,2 
COMPS,ioos:station:USF.COMPS:C10:1,2017-11-13T21:05:00Z,27.1690,-82.9260,-1.0,24.67,2 
COMPS,ioos:station:USF.COMPS:C10:1,2017-11-13T21:35:00Z,27.1690,-82.9260,-1.0,24.68,2 
COMPS,ioos:station:USF.COMPS:C10:1,2017-11-13T22:05:00Z,27.1690,-82.9260,-1.0,24.68,2 
COMPS,ioos:station:USF.COMPS:C10:1,2017-11-13T22:35:00Z,27.1690,-82.9260,-1.0,24.67,2 
COMPS,ioos:station:USF.COMPS:C10:1,2017-11-14T00:05:00Z,27.1690,-82.9260,-1.0,24.62,2 
COMPS,ioos:station:USF.COMPS:C10:1,2017-11-14T00:35:00Z,27.1690,-82.9260,-1.0,24.63,2 
COMPS,ioos:station:USF.COMPS:C10:1,2017-11-14T01:05:00Z,27.1690,-82.9260,-1.0,24.63,2 
COMPS,ioos:station:USF.COMPS:C10:1,2017-11-14T01:35:00Z,27.1690,-82.9260,-1.0,24.64,2 
COMPS,ioos:station:USF.COMPS:C10:1,2017-11-14T02:05:00Z,27.1690,-82.9260,-1.0,24.63,2 
COMPS,ioos:station:USF.COMPS:C10:1,2017-11-14T02:35:00Z,27.1690,-82.9260,-1.0,24.65,2 
COMPS,ioos:station:USF.COMPS:C10:1,2017-11-14T03:05:00Z,27.1690,-82.9260,-1.0,24.63,2 
COMPS,ioos:station:USF.COMPS:C10:1,2017-11-14T03:35:00Z,27.1690,-82.9260,-1.0,24.62,2 
COMPS,ioos:station:USF.COMPS:C10:1,2017-11-14T04:05:00Z,27.1690,-82.9260,-1.0,24.63,2 
COMPS,ioos:station:USF.COMPS:C10:1,2017-11-14T04:35:00Z,27.1690,-82.9260,-1.0,24.61,2 
COMPS,ioos:station:USF.COMPS:C10:1,2017-11-14T05:05:00Z,27.1690,-82.9260,-1.0,24.61,2 
COMPS,ioos:station:USF.COMPS:C10:1,2017-11-14T05:35:00Z,27.1690,-82.9260,-1.0,24.59,2 
COMPS,ioos:station:USF.COMPS:C10:1,2017-11-14T06:05:00Z,27.1690,-82.9260,-1.0,24.59,2 
COMPS,ioos:station:USF.COMPS:C10:1,2017-11-14T06:35:00Z,27.1690,-82.9260,-1.0,24.55,2 
COMPS,ioos:station:USF.COMPS:C10:1,2017-11-14T07:05:00Z,27.1690,-82.9260,-1.0,24.57,2 
COMPS,ioos:station:USF.COMPS:C10:1,2017-11-14T07:35:00Z,27.1690,-82.9260,-1.0,24.55,2 
COMPS,ioos:station:USF.COMPS:C10:1,2017-11-14T08:05:00Z,27.1690,-82.9260,-1.0,24.56,2 
COMPS,ioos:station:USF.COMPS:C10:1,2017-11-14T08:35:00Z,27.1690,-82.9260,-1.0,24.56,2 
COMPS,ioos:station:USF.COMPS:C10:1,2017-11-14T09:05:00Z,27.1690,-82.9260,-1.0,24.57,2 
COMPS,ioos:station:USF.COMPS:C10:1,2017-11-14T09:35:00Z,27.1690,-82.9260,-1.0,24.55,2 
COMPS,ioos:station:USF.COMPS:C10:1,2017-11-14T10:05:00Z,27.1690,-82.9260,-1.0,24.55,2 
COMPS,ioos:station:USF.COMPS:C10:1,2017-11-14T10:35:00Z,27.1690,-82.9260,-1.0,24.53,2 
COMPS,ioos:station:USF.COMPS:C10:1,2017-11-14T11:05:00Z,27.1690,-82.9260,-1.0,24.54,2 
COMPS,ioos:station:USF.COMPS:C10:1,2017-11-14T11:35:00Z,27.1690,-82.9260,-1.0,24.52,2 
COMPS,ioos:station:USF.COMPS:C10:1,2017-11-14T12:05:00Z,27.1690,-82.9260,-1.0,24.52,2 
COMPS,ioos:station:USF.COMPS:C10:1,2017-11-14T12:35:00Z,27.1690,-82.9260,-1.0,24.5,2 
COMPS,ioos:station:USF.COMPS:C10:1,2017-11-14T13:05:00Z,27.1690,-82.9260,-1.0,24.53,2 
COMPS,ioos:station:USF.COMPS:C10:1,2017-11-14T13:35:00Z,27.1690,-82.9260,-1.0,24.56,2 
COMPS,ioos:station:USF.COMPS:C10:1,2017-11-14T14:05:00Z,27.1690,-82.9260,-1.0,24.57,2 
COMPS,ioos:station:USF.COMPS:C10:1,2017-11-14T14:35:00Z,27.1690,-82.9260,-1.0,24.57,2 
COMPS,ioos:station:USF.COMPS:C10:1,2017-11-14T15:05:00Z,27.1690,-82.9260,-1.0,24.58,2 
COMPS,ioos:station:USF.COMPS:C10:1,2017-11-14T15:35:00Z,27.1690,-82.9260,-1.0,24.57,2 
COMPS,ioos:station:USF.COMPS:C10:1,2017-11-14T16:05:00Z,27.1690,-82.9260,-1.0,24.56,2 
COMPS,ioos:station:USF.COMPS:C10:1,2017-11-14T16:35:00Z,27.1690,-82.9260,-1.0,24.57,2 
COMPS,ioos:station:USF.COMPS:C10:1,2017-11-14T17:05:00Z,27.1690,-82.9260,-1.0,24.57,2 
COMPS,ioos:station:USF.COMPS:C10:1,2017-11-14T17:35:00Z,27.1690,-82.9260,-1.0,24.56,2 
COMPS,ioos:station:USF.COMPS:C10:1,2017-11-14T18:05:00Z,27.1690,-82.9260,-1.0,24.55,2 
COMPS,ioos:station:USF.COMPS:C10:1,2017-11-14T18:35:00Z,27.1690,-82.9260,-1.0,24.55,2 
COMPS,ioos:station:USF.COMPS:C10:1,2017-11-14T19:05:00Z,27.1690,-82.9260,-1.0,24.55,2 
COMPS,ioos:station:USF.COMPS:C10:1,2017-11-14T19:35:00Z,27.1690,-82.9260,-1.0,24.54,2 
COMPS,ioos:station:USF.COMPS:C10:1,2017-11-14T20:05:00Z,27.1690,-82.9260,-1.0,24.54,2 
COMPS,ioos:station:USF.COMPS:C10:1,2017-11-14T20:35:00Z,27.1690,-82.9260,-1.0,24.54,2 
COMPS,ioos:station:USF.COMPS:C10:1,2017-11-14T21:05:00Z,27.1690,-82.9260,-1.0,24.53,2 
COMPS,ioos:station:USF.COMPS:C10:1,2017-11-14T21:35:00Z,27.1690,-82.9260,-1.0,24.51,2 
COMPS,ioos:station:USF.COMPS:C10:1,2017-11-14T22:05:00Z,27.1690,-82.9260,-1.0,24.51,2 
COMPS,ioos:station:USF.COMPS:C10:1,2017-11-14T22:35:00Z,27.1690,-82.9260,-1.0,24.5,2 
COMPS,ioos:station:USF.COMPS:C10:1,2017-11-14T23:05:00Z,27.1690,-82.9260,-1.0,24.49,2 
COMPS,ioos:station:USF.COMPS:C10:1,2017-11-14T23:35:00Z,27.1690,-82.9260,-1.0,24.49,2 
COMPS,ioos:station:USF.COMPS:C10:1,2017-11-15T00:05:00Z,27.1690,-82.9260,-1.0,24.48,2 
COMPS,ioos:station:USF.COMPS:C10:1,2017-11-15T00:35:00Z,27.1690,-82.9260,-1.0,24.48,2 
COMPS,ioos:station:USF.COMPS:C10:1,2017-11-15T01:05:00Z,27.1690,-82.9260,-1.0,24.48,2 
COMPS,ioos:station:USF.COMPS:C10:1,2017-11-15T01:35:00Z,27.1690,-82.9260,-1.0,24.48,2 
COMPS,ioos:station:USF.COMPS:C10:1,2017-11-15T02:05:00Z,27.1690,-82.9260,-1.0,24.45,2 
COMPS,ioos:station:USF.COMPS:C10:1,2017-11-15T02:35:00Z,27.1690,-82.9260,-1.0,24.42,2 
COMPS,ioos:station:USF.COMPS:C10:1,2017-11-15T03:05:00Z,27.1690,-82.9260,-1.0,24.42,2 
COMPS,ioos:station:USF.COMPS:C10:1,2017-11-15T03:35:00Z,27.1690,-82.9260,-1.0,24.4,2 
COMPS,ioos:station:USF.COMPS:C10:1,2017-11-15T04:05:00Z,27.1690,-82.9260,-1.0,24.39,2 
COMPS,ioos:station:USF.COMPS:C10:1,2017-11-15T04:35:00Z,27.1690,-82.9260,-1.0,24.37,2 
COMPS,ioos:station:USF.COMPS:C10:1,2017-11-15T05:05:00Z,27.1690,-82.9260,-1.0,24.36,2 
COMPS,ioos:station:USF.COMPS:C10:1,2017-11-15T05:35:00Z,27.1690,-82.9260,-1.0,24.33,2 
COMPS,ioos:station:USF.COMPS:C10:1,2017-11-15T06:05:00Z,27.1690,-82.9260,-1.0,24.32,2 
COMPS,ioos:station:USF.COMPS:C10:1,2017-11-15T06:35:00Z,27.1690,-82.9260,-1.0,24.3,2 
COMPS,ioos:station:USF.COMPS:C10:1,2017-11-15T07:05:00Z,27.1690,-82.9260,-1.0,24.28,2 
COMPS,ioos:station:USF.COMPS:C10:1,2017-11-15T07:35:00Z,27.1690,-82.9260,-1.0,24.25,2 
COMPS,ioos:station:USF.COMPS:C10:1,2017-11-15T08:05:00Z,27.1690,-82.9260,-1.0,24.24,2 
COMPS,ioos:station:USF.COMPS:C10:1,2017-11-15T08:35:00Z,27.1690,-82.9260,-1.0,24.22,2 
COMPS,ioos:station:USF.COMPS:C10:1,2017-11-15T09:05:00Z,27.1690,-82.9260,-1.0,24.22,2 
COMPS,ioos:station:USF.COMPS:C10:1,2017-11-15T09:35:00Z,27.1690,-82.9260,-1.0,24.22,2 
COMPS,ioos:station:USF.COMPS:C10:1,2017-11-15T10:05:00Z,27.1690,-82.9260,-1.0,24.22,2 